Regional Weather Roundup
Issued by NWS Columbia, SC

Home | Current Version | Previous Version | Text Only | Print | Product List | Glossary On
Versions: 1 2 3 4 5 6 7 8 9 10 11 12 13 14 15 16 17 18 19 20 21 22 23 24 25 26 27 28
000
ASUS42 KCAE 251010
RWRCAE
REGIONAL WEATHER ROUNDUP
NATIONAL WEATHER SERVICE COLUMBIA SC
600 AM EDT MON SEP 25 2017

NOTE: "FAIR" INDICATES FEW OR NO CLOUDS BELOW 12,000 FEET WITH NO
SIGNIFICANT WEATHER AND/OR OBSTRUCTIONS TO VISIBILITY.

NOT ALL STATIONS ARE QUALITY CONTROLLED BY THE NATIONAL
WEATHER SERVICE. USE DATA WITH CAUTION...ESPECIALLY
DEWPOINT OBSERVATIONS.

SCZ001>056-GAZ040-063>065-077-251100-
...UPSTATE SOUTH CAROLINA...

CITY           SKY/WX    TMP DP  RH WIND       PRES   REMARKS
ANDERSON       PTCLDY    68  62  81 NE3       30.02R
LIBERTY        MOSUNNY   61  61  99 CALM      30.03S
SPARTANBURG    CLOUDY    66  59  77 N5        30.03R
CLEMSON        PTCLDY    69  66  90 N5        30.03S
GREENVILLE     PTCLDY    71  59  65 NE9       30.04R
GREENWOOD      PTCLDY    65  63  93 N5        30.02R
GREER          CLOUDY    69  60  73 NE6       30.04R
ROCK HILL        N/A    N/A N/A N/A MISG      30.02S
CHESTER        CLOUDY    66  61  82 N7        30.02R
LAURENS        CLOUDY    63  61  94 N5        30.02R


...CENTRAL SOUTH CAROLINA...

CITY           SKY/WX    TMP DP  RH WIND       PRES   REMARKS
COLUMBIA APT   MOCLDY    72  62  71 N3        29.97R
COLUMBIA OWENS MOCLDY    70  64  81 CALM      29.98R
MCENTIRE ANGB  MOCLDY    69  61  76 CALM      29.97R
ORANGEBURG     CLOUDY    70  62  76 N7        29.95R
SUMTER SHAW    CLOUDY    70  60  70 NE8       29.94R
NEWBERRY       CLOUDY    64  63  94 N6        30.03R
AIKEN          FAIR      64  63  94 N3        30.01R
BARNWELL       FAIR      70  66  88 N6        29.96R
MANNING        FAIR      68  61  77 MISG      29.93S
CAMDEN         FAIR      68  61  77 N6        29.97S
LANCASTER      PTSUNNY   66  63  88 N5        30.00S
WINNSBORO      CLOUDY    64  61  88 N3        29.99S


...EASTERN AND COASTAL SOUTH CAROLINA...

CITY           SKY/WX    TMP DP  RH WIND       PRES   REMARKS
MYRTLE BEACH   PTCLDY    69  65  86 NE10      29.91R
N MYRTLE BCH   MOCLDY    69  66  90 N8        29.90R
CONWAY         FAIR      68  63  83 N7        29.91S
MARION         FAIR      64  61  88 NE5       29.93S
HARTSVILLE     FAIR      66  59  77 N7        29.97R
FLORENCE       MOCLDY    68  61  78 N9        29.94S
DARLINGTON     CLOUDY    66  61  84 N6        29.97R
CHARLESTON APT CLOUDY    70  66  87 N8        29.90S
MOUNT PLEASANT FAIR      70  66  88 CALM      29.90R
WALTERBORO     CLOUDY    68  66  94 N5        29.93S
BEAUFORT       CLOUDY    72  70  93 NW7       29.92R


...EASTERN GEORGIA...

CITY           SKY/WX    TMP DP  RH WIND       PRES   REMARKS
AUGUSTA BUSH F PTCLDY    70  66  87 CALM      29.96R
AUGUSTA DANIEL PTCLDY    71  66  84 N9        29.98R
THOMSON        PTCLDY    65  64  96 CALM      30.04R
WASHINGTON     FAIR     N/A N/A N/A CALM      30.01R
CLAXTON        FAIR      69  69  98 CALM      29.94S
SYLVANIA       CLOUDY    68  68 100 CALM      29.96R
STATESBORO     CLOUDY    71  65  83 N5        29.95S
SAVANNAH       PTCLDY    70  68  93 N7        29.93R


...SOUTHERN NORTH CAROLINA...

CITY           SKY/WX    TMP DP  RH WIND       PRES   REMARKS
CHARLOTTE      MOCLDY    66  63  90 N7        30.02S
MONROE         PTCLDY    66  62  87 N5        30.00S
WADESBORO      CLOUDY    62  60  93 CALM      29.99S
RUTHERFORDTON  CLOUDY    65  64  96 CALM      30.06S
ASHEVILLE      MOCLDY    58  57  97 CALM      30.12R

$$




USA.gov is the U.S. government's official web portal to all federal, state and local government web resources and services.